When you browse on this site, cookies collect data to enhance your experience and personalize the content and advertising you see.
Visit our Privacy Policy to learn more. By continuing to use the site, you agree to this use of cookies and data.
  • In Österreich
  • Länderverzeichnis
  • Für 7 Tage
  • Wassertemperatur
  • Wetterkarte
  • News
  • Widgets
  • user-avatar
    Anmelden

    Stündliche Wetter Sherpur

    Heute, 28 Februar, Freitag

    Zeit Temperatur Niederschläge Wind Luftdruck Luftfeuchtigkeit
    00:00 +8°C° 0.3 mm 1 m/S 607 mmHg 87%
    01:00 +8°C° 0.3 mm 1 m/S 606 mmHg 89%
    02:00 +8°C° 0.3 mm 1 m/S 606 mmHg 91%
    03:00 +7°C° 0.5 mm 1 m/S 606 mmHg 91%
    04:00 +7°C° 0.5 mm 1 m/S 606 mmHg 90%
    05:00 +7°C° 0 mm 1 m/S 606 mmHg 92%
    06:00 +7°C° 0.3 mm 1 m/S 606 mmHg 92%
    07:00 +7°C° 0.3 mm 1 m/S 606 mmHg 91%
    08:00 +7°C° 0.3 mm 1 m/S 607 mmHg 90%
    09:00 +8°C° 0.6 mm 1 m/S 607 mmHg 86%
    10:00 +8°C° 0.6 mm 1 m/S 607 mmHg 81%
    11:00 +8°C° 0 mm 2 m/S 608 mmHg 74%
    12:00 +9°C° 0.4 mm 2 m/S 608 mmHg 68%
    13:00 +10°C° 0.4 mm 3 m/S 608 mmHg 63%
    14:00 +10°C° 0.4 mm 3 m/S 608 mmHg 57%
    15:00 +10°C° 0.3 mm 3 m/S 608 mmHg 54%
    16:00 +10°C° 0.3 mm 2 m/S 607 mmHg 52%
    17:00 +9°C° 0 mm 2 m/S 607 mmHg 58%
    18:00 +8°C° 0.3 mm 2 m/S 608 mmHg 61%
    19:00 +9°C° 0.3 mm 1 m/S 608 mmHg 65%
    20:00 +8°C° 0.3 mm 1 m/S 608 mmHg 68%
    21:00 +8°C° 0.1 mm 1 m/S 608 mmHg 68%
    22:00 +7°C° 0.1 mm 1 m/S 608 mmHg 69%
    23:00 +7°C° 0.1 mm 1 m/S 608 mmHg 69%

    Morgen, 29 Februar, Samstag

    Zeit Temperatur Niederschläge Wind Luftdruck Luftfeuchtigkeit
    00:00 +7°C° 0.2 mm 1 m/S 608 mmHg 69%
    01:00 +7°C° 0.2 mm 1 m/S 608 mmHg 69%
    02:00 +6°C° 0.2 mm 1 m/S 607 mmHg 69%
    03:00 +6°C° 0.2 mm 1 m/S 607 mmHg 71%
    04:00 +5°C° 0.2 mm 1 m/S 606 mmHg 72%
    05:00 +5°C° 0.2 mm 1 m/S 606 mmHg 74%
    06:00 +5°C° 0 mm 1 m/S 606 mmHg 73%
    07:00 +5°C° 0 mm 0 m/S 607 mmHg 72%
    08:00 +5°C° 0 mm 0 m/S 607 mmHg 72%
    09:00 +6°C° 0 mm 0 m/S 607 mmHg 68%
    10:00 +7°C° 0 mm 0 m/S 607 mmHg 64%
    11:00 +8°C° 0 mm 0 m/S 608 mmHg 60%
    12:00 +10°C° 0.1 mm 1 m/S 608 mmHg 58%
    13:00 +10°C° 0.1 mm 1 m/S 608 mmHg 55%
    14:00 +11°C° 0.1 mm 1 m/S 607 mmHg 53%
    15:00 +11°C° 0.1 mm 1 m/S 607 mmHg 53%
    16:00 +11°C° 0.1 mm 1 m/S 607 mmHg 53%
    17:00 +11°C° 0.1 mm 1 m/S 607 mmHg 53%
    18:00 +10°C° 0 mm 1 m/S 607 mmHg 59%
    19:00 +9°C° 0 mm 1 m/S 608 mmHg 65%
    20:00 +8°C° 0 mm 1 m/S 608 mmHg 72%
    21:00 +7°C° 0 mm 1 m/S 608 mmHg 73%
    22:00 +7°C° 0 mm 1 m/S 608 mmHg 75%
    23:00 +7°C° 0 mm 1 m/S 608 mmHg 76%

    übermorgen, 1 März, Sonntag

    Zeit Temperatur Niederschläge Wind Luftdruck Luftfeuchtigkeit
    00:00 +6°C° 0 mm 1 m/S 608 mmHg 76%
    01:00 +5°C° 0 mm 0 m/S 607 mmHg 77%
    02:00 +4°C° 0 mm 0 m/S 607 mmHg 77%
    03:00 +4°C° 0 mm 0 m/S 607 mmHg 76%
    04:00 +4°C° 0 mm 0 m/S 606 mmHg 75%
    05:00 +4°C° 0 mm 0 m/S 606 mmHg 74%
    06:00 +4°C° 0 mm 0 m/S 607 mmHg 71%
    07:00 +6°C° 0 mm 1 m/S 607 mmHg 68%
    08:00 +6°C° 0 mm 1 m/S 607 mmHg 65%
    09:00 +7°C° 0 mm 1 m/S 608 mmHg 61%
    10:00 +8°C° 0 mm 1 m/S 608 mmHg 56%
    11:00 +8°C° 0 mm 0 m/S 608 mmHg 52%
    12:00 +9°C° 0 mm 0 m/S 608 mmHg 50%
    13:00 +10°C° 0 mm 0 m/S 608 mmHg 48%
    14:00 +11°C° 0 mm 0 m/S 608 mmHg 46%
    15:00 +11°C° 0 mm 0 m/S 608 mmHg 46%
    16:00 +11°C° 0 mm 0 m/S 608 mmHg 46%
    17:00 +11°C° 0 mm 0 m/S 608 mmHg 45%
    18:00 +10°C° 0 mm 0 m/S 608 mmHg 48%
    19:00 +10°C° 0 mm 1 m/S 608 mmHg 51%
    20:00 +10°C° 0 mm 1 m/S 609 mmHg 54%
    21:00 +9°C° 0 mm 1 m/S 608 mmHg 54%
    22:00 +9°C° 0 mm 1 m/S 608 mmHg 54%
    23:00 +8°C° 0 mm 1 m/S 608 mmHg 54%

    2 März, Montag

    Zeit Temperatur Niederschläge Wind Luftdruck Luftfeuchtigkeit
    00:00 +8°C° 0 mm 1 m/S 608 mmHg 53%
    01:00 +7°C° 0 mm 1 m/S 608 mmHg 53%
    02:00 +7°C° 0 mm 1 m/S 607 mmHg 53%
    03:00 +7°C° 0 mm 1 m/S 607 mmHg 52%
    04:00 +6°C° 0 mm 1 m/S 607 mmHg 51%
    05:00 +6°C° 0 mm 1 m/S 606 mmHg 51%
    06:00 +6°C° 0 mm 1 m/S 607 mmHg 49%
    07:00 +7°C° 0 mm 1 m/S 607 mmHg 47%
    08:00 +7°C° 0 mm 1 m/S 607 mmHg 46%
    09:00 +8°C° 0 mm 1 m/S 608 mmHg 41%
    10:00 +10°C° 0 mm 1 m/S 608 mmHg 37%
    11:00 +11°C° 0 mm 1 m/S 608 mmHg 32%
    12:00 +12°C° 0 mm 1 m/S 608 mmHg 31%
    13:00 +13°C° 0 mm 1 m/S 608 mmHg 29%
    14:00 +13°C° 0 mm 1 m/S 608 mmHg 27%
    15:00 +13°C° 0 mm 1 m/S 608 mmHg 27%
    16:00 +13°C° 0 mm 1 m/S 608 mmHg 27%
    17:00 +13°C° 0 mm 1 m/S 607 mmHg 27%
    18:00 +12°C° 0 mm 1 m/S 607 mmHg 31%
    19:00 +11°C° 0 mm 1 m/S 607 mmHg 36%
    20:00 +10°C° 0 mm 1 m/S 607 mmHg 40%
    21:00 +9°C° 0 mm 1 m/S 607 mmHg 41%
    22:00 +9°C° 0 mm 1 m/S 607 mmHg 41%
    23:00 +8°C° 0 mm 1 m/S 608 mmHg 42%

    3 März, Dienstag

    Zeit Temperatur Niederschläge Wind Luftdruck Luftfeuchtigkeit
    00:00 +8°C° 0 mm 1 m/S 607 mmHg 42%
    01:00 +7°C° 0 mm 1 m/S 607 mmHg 42%
    02:00 +6°C° 0 mm 0 m/S 607 mmHg 42%
    03:00 +7°C° 0 mm 1 m/S 606 mmHg 43%
    04:00 +6°C° 0 mm 1 m/S 606 mmHg 43%
    05:00 +6°C° 0 mm 1 m/S 606 mmHg 43%
    06:00 +6°C° 0 mm 1 m/S 606 mmHg 42%
    07:00 +7°C° 0 mm 1 m/S 606 mmHg 41%
    08:00 +7°C° 0 mm 1 m/S 607 mmHg 40%
    09:00 +8°C° 0 mm 1 m/S 607 mmHg 36%
    10:00 +10°C° 0 mm 1 m/S 607 mmHg 33%
    11:00 +11°C° 0 mm 1 m/S 608 mmHg 29%
    12:00 +12°C° 0 mm 1 m/S 607 mmHg 28%
    13:00 +12°C° 0 mm 1 m/S 607 mmHg 27%
    14:00 +13°C° 0 mm 1 m/S 607 mmHg 26%
    15:00 +13°C° 0 mm 1 m/S 607 mmHg 27%
    16:00 +13°C° 0 mm 1 m/S 606 mmHg 27%
    17:00 +13°C° 0 mm 1 m/S 606 mmHg 27%
    18:00 +12°C° 0 mm 1 m/S 606 mmHg 31%
    19:00 +12°C° 0 mm 1 m/S 607 mmHg 35%
    20:00 +11°C° 0 mm 1 m/S 607 mmHg 39%
    21:00 +10°C° 0.1 mm 1 m/S 607 mmHg 44%
    22:00 +9°C° 0.1 mm 2 m/S 607 mmHg 49%
    23:00 +8°C° 0.1 mm 2 m/S 606 mmHg 54%

    4 März, Mittwoch

    Zeit Temperatur Niederschläge Wind Luftdruck Luftfeuchtigkeit
    00:00 +7°C° 0 mm 2 m/S 606 mmHg 59%
    01:00 +8°C° 0 mm 1 m/S 606 mmHg 63%
    02:00 +6°C° 0 mm 0 m/S 605 mmHg 67%
    03:00 +6°C° 0 mm 0 m/S 605 mmHg 68%
    04:00 +7°C° 0 mm 1 m/S 605 mmHg 69%
    05:00 +6°C° 0 mm 1 m/S 604 mmHg 70%
    06:00 +7°C° 0 mm 1 m/S 605 mmHg 69%
    07:00 +6°C° 0 mm 0 m/S 605 mmHg 69%
    08:00 +6°C° 0 mm 0 m/S 605 mmHg 68%
    09:00 +7°C° 0.1 mm 1 m/S 605 mmHg 66%
    10:00 +8°C° 0.1 mm 1 m/S 605 mmHg 63%
    11:00 +9°C° 0.1 mm 1 m/S 605 mmHg 60%
    12:00 +10°C° 0.5 mm 1 m/S 605 mmHg 58%
    13:00 +9°C° 0.5 mm 2 m/S 605 mmHg 55%
    14:00 +10°C° 0.5 mm 2 m/S 605 mmHg 53%
    15:00 +9°C° 0.6 mm 2 m/S 604 mmHg 57%
    16:00 +9°C° 0.6 mm 2 m/S 604 mmHg 61%
    17:00 +8°C° 0.6 mm 2 m/S 604 mmHg 66%
    18:00 +7°C° 0.6 mm 2 m/S 604 mmHg 70%
    19:00 +7°C° 0.6 mm 2 m/S 604 mmHg 75%
    20:00 +6°C° 0.6 mm 2 m/S 604 mmHg 80%
    21:00 +6°C° 0.7 mm 2 m/S 604 mmHg 82%
    22:00 +6°C° 0.7 mm 2 m/S 604 mmHg 83%
    23:00 +5°C° 0.7 mm 2 m/S 604 mmHg 85%
    Mehr zeigen